Погода в Осташкове

Россия / Тверская область     57°08′34″N   33°06′55″E
темп.,
°C
ветер,
м/с
пор.,
м/с
влажн.,
%
обл.,
%
осадки,
мм/ч
давл.,
гПа
погр.,
м
9 марта, вт
вт900:00−14ссз259730 0.0 1014136
03:00−16ссз229728 0.0 101679
06:00−15сз259787 0.1 1018167
09:00−15ссз369292 0.1 1019379
12:00−12ссз357691 0.0 1020643
15:00−10ссз356747 0.0 1020798
18:00−12ссз25800 0.0 1022152
21:00−15св229232 0.0 102462
10 марта, ср
ср1000:00−16в2592100 0.0 1024218
03:00−17вюв3591100 0.0 1025266
06:00−19в369493 0.0 1026211
09:00−19в368547 0.0 1028258
12:00−14в36690 0.0 1029514
15:00−12в34640 0.0 1029724
18:00−13в24780 0.0 1029150
21:00−17вюв22890 0.0 103130
11 марта, чт
чт1100:00−18юв22900 0.0 103237
03:00−19ююв23890 0.0 103276
06:00−20ююв25890 0.0 1032128
09:00−17ююв36760 0.0 1031230
12:00−11ю37630 0.0 1030452
15:00−8ю48590 0.0 1028657
18:00−10ю39730 0.0 1027494
21:00−13ю411820 0.0 1026365
12 марта, пт
пт1200:00−14ю412860 0.0 1025350
03:00−14ю412908 0.0 1024356
06:00−15ююв5139152 0.0 1021370
09:00−12ю6147726 0.0 1019472
12:00−7ююв7156842 0.0 1017700
15:00−4ю7146871 0.0 1014954
18:00−5ю71689100 0.3 10121346
21:00−5ю71591100 1.2 10111244
13 марта, сб
сб1300:00−5ю61390100 0.6 1010999
03:00−5ю51292100 1.1 1009780
06:00−5ю51193100 0.7 1009613
09:00−5ю4891100 1.0 1009428
12:00−1ююз479099 0.1 1009535
15:00+1юз478799 0.2 1009700
18:00+1ююз498998 0.0 1009616
21:000ююз5109199 0.0 1009743